Regional Weather Roundup
Issued by NWS

Home | Current Version | Previous Version | Text Only | Print | Product List | Glossary Off
Versions: 1 2 3 4 5 6 7 8 9 10 11 12 13 14 15 16 17 18 19 20 21 22 23 24 25 26 27 28 29 30 31 32 33 34 35 36 37 38 39 40 41 42 43 44 45 46 47 48 49 50

000
ASUS43 KLOT 261308
RWRIL

ILLINOIS REGIONAL WEATHER ROUNDUP
NATIONAL WEATHER SERVICE CHICAGO/ROMEOVILLE IL
800 AM CDT SUN MAR 26 2017

NOTE: "FAIR" INDICATES FEW OR NO CLOUDS BELOW 12,000 FEET WITH NO
SIGNIFICANT WEATHER AND/OR OBSTRUCTIONS TO VISIBILITY.

* THESE STATIONS ARE NOT UNDER NWS QUALITY CONTROL. THEY ALSO MAY NOT
  REPORT WEATHER SUCH AS PRECIPITATION OR FOG.

ILZ001-002-007-009-015-016-024-261400-
NORTHWEST ILLINOIS

CITY           SKY/WX    TMP DP  RH WIND       PRES   REMARKS
MOLINE         FOG       50  49  96 E3        29.81R VSB<1/4
STERLING*      FOG       51  51 100 E5        29.83R VSB 1
SAVANNA*       CLOUDY    47  46  99 NE5       29.83S FOG
$$

ILZ003-004-008-010-011-017-018-261400-
NORTH CENTRAL ILLINOIS

CITY           SKY/WX    TMP DP  RH WIND       PRES   REMARKS
ROCKFORD       FOG       47  46  97 E3        29.86S VSB 1/4
FREEPORT*      FOG       44  43  99 NE7       29.85F VSB<1/4
ROCHELLE*      CLOUDY    51  51 100 SE7       29.84S FOG
DE KALB*       LGT RAIN  49  49  99 E8        29.85R VSB 3/4
PERU*          CLOUDY    53  51  94 S7        29.84R
$$

ILZ005-006-012>014-019>023-261400-
NORTHEAST ILLINOIS

CITY           SKY/WX    TMP DP  RH WIND       PRES   REMARKS
CHICAGO-OHARE  HVY RAIN  50  47  89 E3        29.85S VSB 1
CHICAGO-MIDWAY LGT RAIN  52  52 100 SE9       29.86S FOG
AURORA         CLOUDY    53  51  93 E5        29.84S FOG
LANSING*       LGT RAIN  51  51 100 SE9       29.87S
JOLIET*        CLOUDY    56  55  99 SE8       29.85R FOG
WAUKEGAN       LGT RAIN  42  42 100 E7        29.87F VSB 3/4
DUPAGE AIRPORT RAIN      49  49 100 E3        29.84S VSB 1/2
KANKAKEE*      LGT RAIN  56  55  99 SE3       29.87R
WHEELING       LGT RAIN  45  45 100 CALM      29.87S FOG
MORRIS*        CLOUDY    55  54  96 S5        29.83S FOG
ROMEOVILLE*    CLOUDY    54  54 100 SE10      29.85R FOG
$$

LMZ740>746-261400-
SOUTHERN LAKE MICHIGAN

STATION/POSITION SKY/WX   TEMP    WIND        PRES    VSBY  WAVE
                          AIR SEA DIR/SP/G                  HT/PER
                          (F)     (DEG/KT/KT) (MB)    (MI)  (FT/S)
HARRISON CRIB              44     130/ 16/ 18   N/A
BURNHAM HARBOR             45     110/  2/  4   N/A
CALUMET HARBOR             47     100/  8/ 10 1010.8F
BURNS HARBOR               52     140/ 10/ 15 1012.2S
MICHIGAN CITY              50     130/  9/ 10   N/A
$$

ILZ025>027-034>036-040-047-049-050-058-095>099-261400-
WEST-CENTRAL ILLINOIS

CITY           SKY/WX    TMP DP  RH WIND       PRES   REMARKS
QUINCY         LGT RAIN  49  48  97 SW12      29.83R
GALESBURG*     CLOUDY    51  51 100 S8        29.81R FOG
MACOMB*        CLOUDY    51  50  98 S12       29.83S
JACKSONVILLE*  CLOUDY    51  48  92 S7        29.85R
PITTSFIELD*    CLOUDY    50  50  97 SW8       29.85R
$$

ILZ028>032-037-038-041>044-048-051>054-059>061-261400-
CENTRAL ILLINOIS

CITY           SKY/WX    TMP DP  RH WIND       PRES   REMARKS
PONTIAC        CLOUDY    55  55  97 S6        29.86R
BLOOMINGTON    CLOUDY    53  51  93 SW9       29.86R
DECATUR        PTSUNNY   53  51  93 SW8       29.87R
PEORIA         CLOUDY    53  51  93 S10       29.83R
LACON*         CLOUDY    53  52  95 S7        29.83R
LINCOLN*       CLOUDY    54  53  97 S3        29.86R
SPRINGFIELD    CLOUDY    53  49  86 SW8       29.86R
TAYLORVILLE    NOT AVBL
$$

ILZ033-039-045-046-055>057-062-063-261400-
EAST-CENTRAL ILLINOIS

CITY           SKY/WX    TMP DP  RH WIND       PRES   REMARKS
CHAMPAIGN      CLOUDY    56  52  86 S9        29.87R
RANTOUL*       CLOUDY    58  55  92 S12       29.86S
MATTOON        CLOUDY    56  54  93 S5        29.88R
PARIS*         CLOUDY    56  55  97 S10       29.89S
$$

ILZ079-100>102-261400-
SOUTHWEST ILLINOIS

CITY           SKY/WX    TMP DP  RH WIND       PRES   REMARKS
ALTON          CLOUDY    50  46  87 SW7       29.89R
BELLEVILLE     CLOUDY    52  52  99 SW8       29.89R
CAHOKIA*       CLOUDY    53  46  77 W6        29.90R
SPARTA*        CLOUDY    52  49  90 SW3       29.91R
$$

ILZ064>066-069>071-074>076-080>082-084>086-088>090-092>094-261400-
SOUTH-CENTRAL ILLINOIS

CITY           SKY/WX    TMP DP  RH WIND       PRES   REMARKS
CARBONDALE     CLOUDY    53  52  96 SW7       29.92R
CAIRO*         CLOUDY    53  51  92 SW5       29.94R
EFFINGHAM*     CLOUDY    56  56  98 S5        29.91R
MARION         CLOUDY    55  54  94 S6        29.92R
MT. VERNON     CLOUDY    55  54  96 S9        29.91R
CENTRALIA*     CLOUDY    55  55  97 S9        29.90R
SALEM*         CLOUDY    57  54  91 S8        29.89R
METROPOLIS*    CLOUDY    57  55  94 S6        29.94R
$$

ILZ067-068-072-073-078-083-087-091-261400-
SOUTHEAST ILLINOIS

CITY           SKY/WX    TMP DP  RH WIND       PRES   REMARKS
LAWRENCEVILLE  LGT RAIN  57  56  96 S10       29.92R
FLORA*         CLOUDY    57  55  94 S8        29.90R
FAIRFIELD*     CLOUDY    56  55  97 S6        29.90R
HARRISBURG*    CLOUDY    57  55  93 S6        29.92S
ROBINSON*      CLOUDY    56  55  97 S9        29.91S
CARMI*         CLOUDY    56  56  99 S6        29.92R
$$

ABBREVIATIONS USED IN REMARKS
   TC - TEMPERATURE IN CELSIUS
  WCI - WIND CHILL INDEX
   HX - HEAT INDEX
  VSB - VISIBILITY
$$





USA.gov is the U.S. government's official web portal to all federal, state and local government web resources and services.